Temperature
8 7 7 7 6 6 6 6 6 5 5 5 5 4 4 4 4 4 4 5 5 5 6 6 7 7 8 8 9 9 9 9 9 10 12 12 13 13 13 13 13 14 14
8 8 7 7 7 6 6 6 5 5 5 4 4 4 4 4 4 4 3 3 4 4 4 4 5 5 6 7 8 8 8 8 8 9 10 11 12 12 13 13 13 13 13
8 8 8 7 7 6 6 6 5 5 4 4 4 3 3 3 3 3 3 3 3 3 3 3 3 4 4 5 6 7 7 7 8 9 10 11 11 11 12 12 12 13 13
8 8 8 7 7 7 6 6 6 5 4 4 3 3 3 3 3 2 2 2 2 2 2 2 2 2 3 3 4 4 5 6 7 8 9 9 10 10 10 10 11 11 12
8 8 8 8 7 7 7 6 6 5 4 4 3 3 3 2 2 2 2 2 2 2 2 2 2 2 2 2 2 3 3 4 5 7 8 8 8 9 9 9 9 9 10
8 8 8 8 7 7 7 6 6 5 4 3 3 3 3 2 2 2 2 2 2 2 2 1 1 1 1 1 1 2 2 2 4 6 6 7 7 7 7 7 7 7 8
8 8 8 8 7 7 7 6 5 5 4 4 3 3 3 3 2 2 2 2 2 2 2 1 1 1 1 1 1 1 1 1 3 4 5 5 5 6 5 5 5 5 5
8 8 8 7 7 7 7 6 5 5 4 4 4 3 4 4 3 3 3 2 2 2 2 2 1 1 1 1 1 1 -0 0 2 3 3 3 4 4 4 4 3 3 3
7 7 7 7 7 7 7 6 6 5 5 4 4 4 4 4 4 4 3 3 2 2 2 2 1 1 1 1 1 0 0 1 1 2 2 2 2 1 2 2 2 2 2
7 7 7 7 7 6 6 6 6 5 5 4 4 4 4 4 4 3 3 3 2 2 2 1 1 0 0 1 0 -0 -0 0 0 0 0 0 -1 -1 -1 -0 1 1 1
7 7 7 6 6 6 6 6 5 5 5 4 4 4 3 3 3 3 3 2 2 1 1 0 -1 -1 -1 -1 -1 -1 -1 -1 -1 -1 -1 -2 -3 -4 -3 -3 -2 -1 -0
7 7 6 6 6 6 6 5 5 5 4 4 4 3 3 3 3 2 2 1 1 -0 -1 -1 -2 -2 -3 -3 -3 -3 -3 -3 -3 -3 -3 -3 -4 -5 -5 -4 -4 -2 -2
7 7 6 6 6 6 5 5 5 5 4 4 3 3 3 2 2 1 1 0 -0 -1 -2 -3 -3 -4 -4 -4 -4 -4 -4 -4 -4 -4 -4 -5 -5 -6 -6 -6 -5 -4 -3
6 6 6 6 6 6 5 5 5 4 4 3 3 3 2 2 1 1 -0 -1 -2 -2 -3 -4 -5 -5 -5 -5 -6 -6 -6 -5 -5 -6 -5 -6 -6 -7 -7 -7 -6 -5 -4
6 6 6 6 6 5 5 5 5 4 4 3 2 2 2 1 0 -0 -1 -2 -3 -4 -4 -5 -5 -6 -6 -6 -6 -6 -6 -6 -6 -6 -7 -7 -7 -7 -7 -7 -7 -6 -6
7 6 6 6 6 5 5 5 4 4 3 3 2 1 1 0 -0 -1 -2 -2 -3 -4 -5 -5 -6 -6 -7 -7 -7 -7 -7 -7 -7 -7 -7 -7 -7 -8 -8 -8 -8 -7 -7
7 7 6 6 6 5 5 4 4 4 3 2 2 1 0 -0 -1 -1 -2 -3 -3 -4 -5 -6 -6 -7 -7 -7 -7 -7 -7 -7 -7 -7 -8 -8 -8 -8 -9 -9 -9 -8 -7
7 7 7 6 6 5 5 4 4 3 3 2 1 1 -0 -1 -1 -2 -2 -3 -4 -5 -5 -6 -7 -7 -7 -8 -8 -8 -8 -8 -7 -8 -8 -8 -9 -9 -9 -9 -9 -9 -8
7 7 7 6 6 5 5 4 4 3 2 2 1 1 -0 -1 -1 -2 -3 -3 -4 -5 -6 -7 -7 -8 -8 -8 -9 -9 -8 -8 -8 -8 -8 -9 -9 -9 -9 -10 -10 -9 -9
7 7 7 6 6 5 4 4 3 3 2 2 1 1 0 -1 -1 -2 -3 -3 -4 -5 -6 -7 -8 -8 -9 -9 -9 -9 -9 -8 -8 -9 -9 -9 -9 -9 -10 -10 -10 -10 -9
7 7 7 6 6 5 5 4 3 3 2 2 1 1 0 -1 -2 -2 -3 -4 -5 -5 -6 -7 -8 -9 -9 -9 -10 -10 -10 -9 -9 -9 -9 -9 -9 -9 -10 -10 -10 -10 -9
8 8 7 7 6 5 5 4 3 3 2 2 1 1 -0 -1 -2 -2 -3 -4 -5 -6 -7 -8 -9 -9 -10 -10 -11 -11 -11 -11 -10 -10 -9 -10 -10 -10 -10 -10 -10 -10 -9
9 9 8 7 6 6 5 4 3 3 2 2 1 0 -0 -1 -2 -3 -3 -4 -5 -6 -7 -8 -9 -10 -10 -10 -11 -11 -11 -11 -11 -11 -10 -10 -10 -10 -10 -10 -10 -10 -9
11 10 9 8 7 6 5 4 3 3 2 2 1 0 -0 -1 -2 -3 -4 -4 -5 -7 -8 -8 -9 -10 -11 -11 -11 -11 -11 -12 -12 -12 -11 -11 -11 -11 -10 -10 -10 -10 -9
12 11 9 8 7 6 5 4 3 3 2 1 1 0 -0 -1 -2 -3 -4 -5 -6 -7 -8 -9 -9 -10 -11 -11 -11 -11 -11 -11 -12 -12 -12 -11 -11 -11 -11 -10 -10 -10 -9
12 11 10 8 7 6 5 4 3 3 2 1 1 0 -1 -1 -2 -3 -4 -5 -6 -7 -8 -9 -9 -10 -11 -11 -11 -11 -11 -12 -12 -12 -13 -12 -12 -12 -11 -11 -10 -10 -9
Wind_Speed
1 4 5 7 9 10 11 12 14 15 16 17 18 19 19 20 20 21 22 23 24 24 25 26 27 27 28 28 29 28 28 28 28 28 28 28 29 29 28 28 27 22 27
8 7 6 7 8 10 11 12 13 14 15 16 17 18 18 19 19 20 21 22 23 23 24 25 26 26 27 28 29 29 29 29 28 28 27 27 28 28 28 28 26 23 26
12 8 4 7 8 9 10 11 12 13 14 15 16 17 18 18 19 20 21 21 22 23 23 24 25 25 26 27 28 28 29 29 29 29 27 24 26 27 28 28 26 25 25
13 8 4 7 8 9 10 11 12 13 14 15 16 17 17 18 18 19 20 21 21 22 23 24 24 25 26 26 27 27 28 29 29 28 24 24 24 26 28 28 27 25 25
13 8 5 8 7 8 9 10 11 12 13 14 15 16 17 17 18 19 20 20 21 22 23 23 24 25 25 26 26 27 28 29 28 27 25 25 24 26 29 28 28 26 25
12 8 5 7 7 7 8 9 10 11 12 13 15 16 17 17 18 19 19 20 21 22 23 23 24 25 25 25 26 27 28 28 26 25 26 26 25 28 30 29 28 27 26
12 9 5 7 6 6 6 7 8 10 11 13 14 15 16 17 18 18 19 20 21 22 23 24 24 25 25 25 26 26 27 27 25 25 25 25 27 30 30 30 29 28 27
14 10 5 6 5 4 5 6 7 9 10 12 13 15 16 17 17 18 20 21 22 23 23 24 25 25 26 26 26 26 26 25 24 24 24 24 28 31 31 31 31 30 29
14 11 9 7 6 5 4 5 6 7 9 11 12 14 15 17 17 19 20 21 22 22 23 23 24 25 25 26 26 26 26 25 24 22 22 22 27 31 33 33 33 32 31
12 12 11 9 6 4 3 4 5 6 7 9 11 12 14 15 16 18 20 20 21 21 22 22 23 24 25 25 26 26 25 23 22 21 20 22 29 32 33 33 33 33 33
8 10 12 10 7 4 3 3 4 4 6 7 8 10 11 14 15 16 19 19 20 19 20 21 22 23 23 24 25 26 24 21 22 20 20 26 31 32 33 33 34 35 34
9 8 11 11 9 5 3 2 2 2 4 5 6 7 9 11 13 14 16 17 18 17 18 19 21 21 20 20 21 23 20 22 21 20 22 30 31 32 33 34 35 35 36
10 9 11 13 11 7 4 3 1 1 2 3 3 5 7 8 10 12 14 15 16 15 16 17 18 17 17 18 18 19 20 21 20 22 24 30 32 34 34 35 35 36 37
10 10 10 15 12 9 6 4 3 2 1 0 1 2 4 5 7 8 9 11 13 13 14 14 15 16 17 17 17 17 19 20 21 22 24 30 33 35 35 36 36 36 37
12 11 9 15 14 11 8 6 5 4 3 3 2 1 0 1 2 4 6 8 10 11 12 12 14 15 15 15 16 17 19 21 22 22 23 30 33 35 36 36 36 37 38
14 13 9 13 15 12 9 8 6 6 5 5 4 4 3 2 2 3 5 7 10 11 12 12 14 13 12 13 14 17 19 20 21 22 24 27 31 33 35 36 37 37 38
14 13 11 13 15 13 11 9 7 7 6 6 6 6 6 5 4 4 5 7 10 11 12 12 13 11 11 12 12 16 18 18 20 23 25 25 26 30 33 35 36 37 38
14 14 13 13 14 13 12 10 8 6 6 7 7 7 8 7 6 6 6 8 10 11 10 9 7 5 6 7 7 10 15 17 20 22 23 24 24 25 28 33 35 36 37
16 16 14 10 12 13 12 10 8 6 7 7 7 9 9 9 8 7 7 9 10 9 9 9 6 5 7 8 8 8 9 12 17 20 20 23 24 25 25 29 33 35 36
16 15 14 12 11 12 10 7 5 4 6 7 8 10 10 10 9 8 8 9 9 7 5 5 6 6 6 8 11 11 9 11 13 12 15 19 22 24 25 26 27 28 32
15 15 16 13 11 8 5 4 3 3 3 5 9 10 11 10 9 9 8 9 8 5 5 6 5 6 5 5 7 11 10 9 10 8 11 13 17 22 23 24 23 23 23
19 18 17 16 14 12 7 5 4 3 3 6 7 8 10 10 9 8 8 7 8 5 5 6 5 4 5 6 6 11 10 11 8 12 9 11 12 16 17 22 22 23 22
21 21 19 17 15 13 10 5 3 2 1 2 4 4 8 9 10 9 9 9 8 6 5 6 6 6 6 6 4 5 8 11 15 11 12 11 10 12 12 16 20 22 22
22 18 17 17 15 13 12 9 8 7 6 6 4 4 8 9 9 9 10 9 9 7 6 7 6 6 6 8 6 5 7 9 11 14 12 9 12 14 14 14 15 19 20
19 17 16 16 15 14 13 12 10 8 7 5 4 6 6 7 9 10 10 10 9 8 8 8 7 7 6 7 7 7 8 8 8 9 16 18 15 12 12 13 13 14 17
14 15 15 17 16 15 14 12 12 11 9 7 7 6 5 4 6 10 11 11 11 10 9 9 8 8 8 8 8 7 7 8 9 9 12 17 18 16 14 12 12 11 15
Wind_Direction
145 50 61 60 57 53 49 45 42 38 35 33 30 28 27 26 24 23 21 19 17 15 13 11 10 8 7 6 4 3 2 2 1 1 0 358 353 350 349 349 349 347 346
118 81 72 74 64 58 52 47 43 39 36 33 31 28 26 25 24 23 21 19 16 14 12 11 9 7 6 4 2 0 359 359 359 360 360 356 349 345 345 345 344 343 344
109 97 67 83 73 64 56 49 44 40 37 34 30 27 26 25 24 23 20 18 16 14 12 10 8 7 5 3 1 359 358 357 357 359 359 353 347 342 341 340 339 340 341
116 110 93 93 80 69 60 51 45 40 37 34 31 27 26 24 23 22 20 17 15 14 13 10 8 7 5 3 1 359 358 357 356 358 357 351 346 339 338 336 335 335 336
121 117 111 103 87 73 62 53 45 40 36 34 30 27 26 24 23 23 19 17 15 14 13 11 10 8 6 4 2 0 359 356 358 360 356 349 345 337 335 334 332 330 330
131 129 124 112 97 80 64 53 46 39 36 34 30 28 26 23 22 23 19 17 15 14 13 12 11 9 8 6 4 1 358 356 6 0 352 345 341 332 333 331 328 326 325
147 144 139 118 103 87 68 54 47 40 36 34 30 28 26 22 21 22 18 16 15 14 13 11 10 9 9 6 3 0 359 358 5 355 346 341 335 331 330 328 326 323 320
153 152 127 115 96 80 65 54 47 41 37 34 30 28 26 22 20 21 17 15 14 12 11 10 9 8 7 4 2 0 360 1 0 350 342 340 331 330 328 326 324 320 317
151 145 127 109 91 68 46 50 47 42 37 34 29 28 26 22 20 20 16 13 12 10 9 7 6 6 4 2 360 358 359 359 355 346 342 336 329 329 326 323 320 317 314
148 146 140 128 111 88 56 46 47 41 35 32 26 26 27 24 22 19 13 11 10 8 7 5 3 2 1 359 356 355 357 354 345 343 339 330 329 327 323 320 317 314 311
157 156 153 143 130 118 105 68 49 41 34 37 30 27 32 31 26 20 12 10 7 5 3 1 359 358 357 353 351 350 350 343 341 338 333 328 327 323 320 318 315 312 308
175 177 167 156 149 143 140 116 70 71 56 49 43 41 38 34 27 20 12 8 4 1 359 355 354 352 349 342 342 343 339 338 336 332 328 325 324 322 319 315 312 309 305
179 179 175 166 162 164 173 180 168 127 83 50 41 39 36 34 27 19 11 4 359 354 351 346 344 340 334 331 330 330 330 332 327 324 321 321 321 319 316 313 309 306 303
177 182 179 171 170 177 187 199 192 182 179 175 29 33 35 35 23 11 0 352 346 341 336 333 329 327 324 323 321 321 323 322 319 317 315 318 318 316 314 310 307 303 300
183 183 180 173 175 182 191 202 196 203 212 222 223 222 69 69 5 344 335 334 331 328 324 321 320 317 316 317 318 321 317 314 312 310 310 312 313 313 311 309 305 302 298
185 183 178 175 179 182 189 201 212 217 223 222 223 217 210 207 250 290 305 314 317 318 317 315 313 310 310 311 312 315 312 308 306 305 305 306 307 308 308 306 304 300 297
186 181 178 179 179 182 191 204 213 222 225 223 224 221 218 221 239 260 277 293 304 312 313 315 312 312 315 317 312 311 310 306 304 303 303 300 299 302 304 304 302 299 296
183 181 183 181 178 183 191 202 212 221 222 225 226 228 227 231 242 252 264 282 299 306 308 307 303 307 305 305 304 306 308 306 303 301 299 296 296 296 297 300 300 298 296
185 183 185 177 175 182 188 196 205 214 219 226 234 238 237 237 245 252 262 280 294 297 300 308 322 302 305 309 308 304 305 304 301 300 296 296 293 293 293 296 298 298 297
186 184 183 180 178 177 176 180 192 212 225 235 245 248 242 241 250 257 267 279 289 287 289 291 295 296 293 300 312 311 301 298 296 291 292 297 296 294 293 293 294 294 295
187 186 185 184 181 169 162 172 189 215 223 243 253 250 239 242 253 262 271 281 284 274 275 286 291 297 296 300 309 313 304 287 288 291 291 294 295 295 294 294 293 291 292
193 192 190 189 184 182 178 169 173 178 204 229 241 238 236 244 256 264 266 271 278 276 283 289 292 287 296 314 308 317 315 310 305 313 297 297 297 299 298 299 296 294 292
200 196 195 191 187 184 174 156 154 155 226 233 228 230 239 251 262 266 272 274 275 266 268 278 281 277 293 298 273 283 304 308 316 305 305 302 301 303 301 299 298 299 296
205 197 194 188 186 182 174 174 174 189 205 216 214 223 245 255 260 266 271 274 272 267 260 273 290 273 280 295 295 259 260 282 301 309 310 301 303 305 304 305 304 301 298
200 194 191 185 186 182 180 182 183 198 209 216 223 237 245 252 257 263 270 271 266 263 264 268 274 270 265 274 285 287 287 286 273 291 306 311 310 305 303 304 303 302 303
192 189 187 186 188 184 184 185 189 198 204 213 224 234 241 242 252 260 266 263 262 262 264 266 264 264 264 266 274 275 279 284 291 290 297 304 307 307 304 302 301 304 308
Height
1614 1615 1615 1614 1613 1612 1610 1608 1606 1604 1602 1600 1597 1595 1593 1590 1588 1585 1582 1579 1576 1574 1571 1569 1566 1564 1561 1559 1557 1554 1552 1550 1549 1547 1546 1546 1546 1547 1546 1546 1546 1546 1546
1612 1613 1613 1613 1612 1611 1609 1607 1605 1603 1601 1599 1597 1595 1593 1590 1588 1585 1582 1579 1577 1574 1571 1568 1566 1563 1560 1558 1555 1553 1551 1549 1546 1544 1543 1543 1543 1543 1543 1543 1543 1543 1543
1611 1612 1611 1611 1611 1609 1608 1606 1604 1602 1600 1598 1596 1594 1592 1590 1588 1585 1582 1579 1576 1574 1571 1568 1565 1562 1559 1556 1554 1552 1549 1547 1544 1541 1540 1539 1539 1540 1540 1540 1540 1540 1540
1609 1610 1610 1610 1609 1608 1607 1605 1603 1601 1599 1597 1595 1593 1591 1589 1587 1584 1581 1578 1576 1573 1570 1567 1564 1561 1558 1555 1552 1550 1547 1545 1542 1539 1537 1536 1535 1536 1536 1536 1536 1535 1535
1608 1609 1609 1608 1608 1606 1605 1604 1602 1600 1598 1597 1594 1592 1590 1588 1585 1583 1580 1577 1574 1571 1569 1566 1563 1560 1557 1554 1550 1547 1544 1541 1538 1537 1535 1534 1533 1532 1532 1532 1531 1531 1531
1606 1607 1607 1607 1606 1605 1604 1602 1600 1599 1597 1595 1593 1591 1588 1586 1584 1581 1578 1575 1573 1570 1567 1564 1561 1558 1555 1551 1548 1545 1541 1538 1533 1533 1532 1531 1530 1529 1528 1527 1527 1527 1526
1605 1606 1605 1605 1605 1604 1602 1601 1599 1597 1595 1594 1591 1589 1586 1584 1581 1579 1576 1573 1570 1568 1565 1562 1559 1556 1552 1548 1545 1542 1538 1535 1530 1529 1527 1527 1527 1526 1524 1523 1522 1522 1522
1604 1604 1604 1604 1603 1602 1601 1599 1597 1596 1594 1591 1589 1587 1584 1581 1579 1576 1574 1571 1569 1566 1563 1560 1557 1554 1550 1546 1543 1539 1535 1531 1527 1525 1523 1522 1522 1521 1519 1518 1517 1517 1516
1601 1602 1602 1602 1601 1600 1599 1597 1596 1594 1592 1589 1587 1585 1582 1580 1577 1575 1572 1570 1567 1564 1561 1558 1555 1552 1548 1544 1541 1537 1532 1528 1525 1521 1519 1517 1516 1515 1514 1513 1511 1510 1510
1599 1599 1600 1600 1599 1598 1597 1595 1594 1592 1590 1588 1585 1583 1580 1578 1576 1573 1570 1568 1565 1562 1559 1556 1552 1549 1545 1542 1538 1534 1530 1526 1522 1518 1515 1512 1511 1509 1508 1507 1505 1504 1504
1595 1596 1597 1598 1597 1596 1595 1593 1592 1590 1588 1586 1583 1581 1578 1576 1573 1571 1568 1565 1562 1559 1556 1552 1549 1545 1542 1538 1535 1531 1527 1523 1519 1515 1512 1508 1506 1504 1503 1501 1499 1497 1496
1591 1593 1594 1595 1595 1594 1592 1591 1589 1587 1585 1583 1581 1578 1576 1573 1571 1568 1565 1562 1559 1555 1552 1548 1544 1541 1537 1534 1530 1527 1523 1520 1516 1512 1508 1505 1502 1500 1497 1495 1492 1490 1489
1588 1590 1591 1592 1592 1591 1589 1588 1587 1585 1583 1580 1578 1576 1573 1570 1568 1565 1562 1558 1554 1551 1547 1543 1540 1536 1532 1529 1525 1522 1519 1516 1512 1508 1504 1501 1497 1494 1491 1488 1485 1483 1481
1584 1586 1587 1588 1588 1588 1587 1585 1584 1582 1580 1577 1575 1572 1570 1567 1564 1561 1557 1554 1550 1546 1542 1538 1535 1531 1528 1524 1521 1518 1515 1511 1508 1504 1499 1496 1492 1488 1484 1481 1478 1476 1474
1579 1581 1583 1585 1585 1584 1583 1582 1580 1578 1576 1574 1571 1568 1566 1563 1560 1557 1553 1549 1545 1541 1537 1534 1530 1527 1523 1520 1517 1513 1510 1507 1503 1499 1494 1490 1486 1481 1477 1474 1470 1468 1465
1575 1577 1579 1580 1581 1580 1579 1578 1577 1575 1572 1570 1567 1564 1562 1559 1556 1552 1549 1545 1541 1537 1533 1530 1526 1522 1519 1515 1512 1509 1505 1502 1498 1494 1489 1484 1479 1475 1470 1466 1462 1459 1456
1571 1573 1575 1576 1576 1576 1575 1574 1572 1571 1568 1566 1563 1560 1557 1554 1551 1548 1544 1541 1537 1533 1530 1526 1522 1519 1515 1511 1507 1504 1500 1497 1493 1488 1484 1479 1473 1468 1463 1458 1454 1450 1447
1567 1568 1570 1571 1571 1571 1571 1570 1568 1566 1564 1562 1559 1556 1553 1550 1547 1544 1540 1537 1533 1529 1526 1522 1518 1514 1510 1507 1502 1499 1495 1492 1487 1483 1478 1473 1467 1461 1456 1451 1446 1442 1438
1561 1563 1564 1565 1566 1566 1566 1565 1564 1562 1560 1557 1555 1552 1549 1546 1543 1540 1536 1533 1529 1525 1522 1518 1514 1510 1506 1502 1497 1493 1490 1486 1482 1477 1472 1467 1462 1456 1450 1444 1439 1434 1429
1556 1557 1558 1559 1560 1561 1561 1560 1559 1557 1555 1553 1550 1548 1545 1542 1539 1535 1532 1529 1525 1521 1518 1514 1510 1507 1503 1498 1493 1488 1484 1481 1476 1472 1467 1462 1456 1450 1444 1438 1431 1425 1420
1549 1550 1551 1552 1553 1555 1555 1554 1553 1552 1550 1548 1545 1543 1540 1537 1534 1531 1528 1524 1520 1517 1513 1510 1506 1502 1499 1495 1489 1482 1478 1475 1471 1466 1461 1456 1450 1445 1438 1432 1425 1419 1413
1541 1542 1543 1544 1546 1548 1549 1549 1548 1547 1545 1543 1541 1538 1535 1533 1530 1526 1523 1519 1516 1512 1509 1506 1502 1497 1494 1492 1487 1480 1472 1467 1464 1460 1455 1450 1444 1439 1433 1426 1420 1413 1408
1533 1533 1535 1537 1539 1541 1543 1543 1542 1541 1539 1538 1536 1533 1531 1528 1525 1522 1518 1515 1512 1508 1504 1501 1498 1494 1490 1487 1485 1482 1474 1464 1458 1451 1448 1443 1438 1433 1427 1421 1414 1408 1402
1525 1527 1529 1530 1532 1534 1535 1536 1535 1535 1534 1533 1531 1528 1526 1524 1521 1517 1514 1510 1507 1504 1500 1497 1493 1490 1486 1482 1479 1477 1473 1467 1459 1447 1440 1436 1432 1427 1422 1416 1409 1403 1397
1519 1520 1521 1523 1524 1526 1528 1529 1529 1528 1528 1527 1525 1523 1521 1519 1516 1513 1509 1506 1502 1499 1495 1492 1489 1485 1482 1478 1474 1470 1466 1462 1457 1450 1438 1429 1423 1419 1416 1410 1404 1398 1393
1512 1513 1513 1515 1516 1518 1520 1521 1521 1522 1521 1520 1519 1517 1515 1513 1511 1508 1504 1501 1497 1494 1490 1487 1483 1480 1476 1472 1469 1465 1460 1456 1451 1446 1437 1428 1419 1411 1408 1404 1400 1395 1389